Terminal Aerodrome Forecast
Issued by NWS

Home | Current Version | Previous Version | Text Only | Print | Product List | Glossary On
Versions: 1 2 3 4 5 6 7 8 9 10 11 12 13 14 15 16
855
FTUS43 KAPX 041720
TAFAPN
TAF
KAPN 041720Z 0418/0518 01011KT P6SM OVC009
     FM041900 01012KT P6SM OVC015
     FM042200 36008KT P6SM OVC050
     FM050500 35005KT P6SM OVC015
     FM051400 36005KT P6SM BKN025=

USA.gov is the U.S. government's official web portal to all federal, state and local government web resources and services.